Location: Sungai Bunut
(2.6333°N, 113.7333°E)
Time: 21:21:37
(UTC+00:00)

Cosmos 1697 Rocket - Pass Details

Date: 31 May 2022
Orbit: 833 x 843 km, 71.0° (Epoch: 03 July)

Event Time Altitude Azimuth Distance (km) Brightness Sun altitude
Rises 21:35:47 0° 3° (N) 3,368 6.2 -9.9°
Reaches altitude 10° 21:38:29 10° 14° (NNE) 2,435 5.6 -9.3°
Maximum altitude 21:43:20 30° 74° (ENE) 1,438 4.9 -8.1°
Drops below altitude 10° 21:48:11 10° 135° (SE) 2,438 5.4 -7.0°
Sets 21:50:53 0° 145° (SE) 3,373 6.0 -6.4°
